Home   Weather   Saarbrücken   Past weeks

Flag for Germany Past Weather in Saarbrücken, Saarland, Germany — Yesterday and Last 2 Weeks

Now
68 °F

Clear.


Feels Like: 68 °F
Forecast: 64 / 87 °F
Wind: 6 mph from East

Location: Saarbruecken / Ensheim

Current Time: May 27, 2017 at 11:17:26 pm

Latest Report: May 27, 2017 at 10:50 pm


Visibility: 10 mi

Pressure: 30.09 "Hg

Humidity: 64%

Dew Point: 55 °F

Location of SaarbrückenLocation

Past Weather in Saarbrücken — Graph

°F

Saarbrücken Temperature Yesterday

Maximum temperature yesterday: 77 °F (at 3:20 pm)
Minimum temperature yesterday: 54 °F (at 5:50 am)
Average temperature yesterday: 65 °F

High & Low Weather Summary for the Past Weeks

 TemperatureHumidityPressure
High86 °F (May 27, 4:50 pm)100% (May 14, 1:20 am)30.42 "Hg (May 14, 1:20 am)
Low41 °F (May 21, 4:20 am)19% (May 17, 4:50 pm)29.68 "Hg (May 12, 9:20 pm)
Average62 °F67%30.13 "Hg
* Reported May 12 9:20 pm — May 27 9:20 pm, Saarbrücken. Weather by CustomWeather, © 2017

Note: Actual official high and low records may vary slightly from our data, if they occured in-between our weather recording intervals... More about our weather records

Advertising

Saarbrücken Weather History for the Previous 24 Hours

Scroll right to see more
 ConditionsComfort  
Time TempWeatherWind HumidityBarometerVisibility
9:20 pm
Sat, May 27
73 °FPassing clouds.2 mph53%30.07 "HgN/A
8:50 pm81 °FPassing clouds.2 mph42%30.07 "HgN/A
8:20 pm84 °FPassing clouds.2 mph35%30.07 "HgN/A
7:50 pm84 °FPassing clouds.3 mph33%30.07 "HgN/A
7:20 pm84 °FPassing clouds.5 mph33%30.04 "HgN/A
6:50 pm84 °FPassing clouds.3 mph31%30.04 "HgN/A
6:20 pm84 °FSunny.3 mph33%30.07 "Hg10 mi
5:50 pm86 °FPassing clouds.5 mph29%30.07 "HgN/A
5:20 pm84 °FPassing clouds.7 mph29%30.07 "HgN/A
4:50 pm86 °FSunny.5 mph29%30.07 "Hg10 mi
3:50 pm84 °FPassing clouds.7 mph29%30.07 "HgN/A
3:20 pm82 °FPassing clouds.7 mph32%30.07 "HgN/A
2:50 pm82 °FPassing clouds.8 mph35%30.07 "HgN/A
2:20 pm82 °FSunny.6 mph30%30.07 "Hg10 mi
1:50 pm81 °FPassing clouds.6 mph37%30.09 "HgN/A
1:20 pm81 °FPassing clouds.8 mph37%30.09 "HgN/A
12:50 pm79 °FPassing clouds.7 mph39%30.09 "HgN/A
12:20 pm77 °FPassing clouds.7 mph42%30.09 "HgN/A
11:50 am77 °FPassing clouds.7 mph42%30.09 "HgN/A
11:20 am77 °FPassing clouds.7 mph42%30.09 "HgN/A
10:50 am73 °FPassing clouds.9 mph47%30.09 "HgN/A
10:20 am72 °FPassing clouds.10 mph50%30.09 "HgN/A
9:50 am70 °FSunny.9 mph53%30.09 "Hg10 mi
9:20 am68 °FSunny.9 mph64%30.09 "Hg10 mi
8:50 am66 °FSunny.9 mph64%30.12 "Hg10 mi
8:20 am64 °FSunny.9 mph68%30.09 "Hg10 mi
7:50 am64 °FPassing clouds.8 mph64%30.09 "HgN/A
6:50 am59 °FSunny.6 mph77%30.09 "Hg10 mi
6:20 am57 °FSunny.7 mph82%30.09 "Hg10 mi
5:50 am57 °FSunny.7 mph77%30.09 "Hg10 mi
5:20 am55 °FClear.7 mph82%30.09 "Hg10 mi
4:50 am57 °FClear.7 mph77%30.09 "Hg10 mi
4:20 am59 °FClear.7 mph77%30.07 "Hg10 mi
3:50 am59 °FClear.8 mph72%30.07 "Hg10 mi
3:20 am59 °FClear.8 mph77%30.07 "HgN/A
2:50 am61 °FClear.10 mph72%30.07 "HgN/A
2:20 am61 °FClear.10 mph72%30.07 "HgN/A
1:50 am61 °FClear.10 mph72%30.07 "HgN/A
1:20 am59 °FClear.8 mph77%30.07 "HgN/A
12:50 am61 °FClear.8 mph72%30.09 "HgN/A
12:20 am61 °FClear.7 mph72%30.09 "HgN/A
11:50 pm
Fri, May 26
61 °FClear.8 mph72%30.09 "HgN/A
11:20 pm63 °FClear.9 mph68%30.09 "HgN/A
Weather by CustomWeather, © 2017

See weather overviewHow to use our weather pages